This is the latest recevied weather packets stored in our database for station/object W8DRH-13. If no packets are shown the sender has not sent any weather packets the latest 10 day(s).
| Time | Temp. | Humidity | Pressure | Rain* | Wind** | Luminosity | Snow |
|---|---|---|---|---|---|---|---|
| 1777725227 | 2.78° C | 84% | 1014.6 hPa | 0 mm | - | 76 W/m² | - |
| 1777724925 | 2.78° C | 84% | 1015 hPa | 0 mm | - | 58 W/m² | - |
| 1777724319 | 2.22° C | 84% | 1014.4 hPa | 0 mm | - | 49 W/m² | - |
| 1777723713 | 2.22° C | 83% | 1014.4 hPa | 0 mm | - | 42 W/m² | - |
| 1777723409 | 2.22° C | 83% | 1014.8 hPa | 0 mm | - | 42 W/m² | - |
| 1777723107 | 1.67° C | 83% | 1014.3 hPa | 0 mm | - | 40 W/m² | - |
| 1777722804 | 1.67° C | 83% | 1014.3 hPa | 0 mm | - | 39 W/m² | - |
| 1777722500 | 1.67° C | 83% | 1014.4 hPa | 0 mm | - | 37 W/m² | - |
| 1777722197 | 1.67° C | 83% | 1014.5 hPa | 0 mm | - | 43 W/m² | - |
| 1777721894 | 1.67° C | 83% | 1014.5 hPa | 0 mm | - | 42 W/m² | - |
| 1777721592 | 1.11° C | 84% | 1014.5 hPa | 0 mm | - | 39 W/m² | - |
| 1777721290 | 1.11° C | 84% | 1014.3 hPa | 0 mm | - | 35 W/m² | - |
| 1777720987 | 1.11° C | 84% | 1014.5 hPa | 0 mm | - | 32 W/m² | - |
| 1777720684 | 1.11° C | 84% | 1014.4 hPa | 0 mm | - | 27 W/m² | - |
| 1777720382 | 1.11° C | 84% | 1014.3 hPa | 0 mm | - | 23 W/m² | - |
| 1777720079 | 1.11° C | 85% | 1014.4 hPa | 0 mm | - | 19 W/m² | - |
| 1777719777 | 1.11° C | 85% | 1014.1 hPa | 0 mm | - | 17 W/m² | - |
| 1777719474 | 0.56° C | 85% | 1014.1 hPa | 0 mm | - | 15 W/m² | - |
| 1777719170 | 0.56° C | 85% | 1014 hPa | 0 mm | - | 12 W/m² | - |
| 1777718868 | 0.56° C | 86% | 1014.4 hPa | 0 mm | - | 10 W/m² | - |
| 1777718566 | 0.56° C | 85% | 1014.2 hPa | 0 mm | - | 7 W/m² | - |
| 1777718263 | 0.56° C | 85% | 1014 hPa | 0 mm | - | 5 W/m² | - |
| 1777717960 | 1.11° C | 85% | 1014 hPa | 0 mm | - | 3 W/m² | - |
| 1777717657 | 1.11° C | 84% | 1014.2 hPa | 0 mm | - | 1 W/m² | - |
| 1777717354 | 1.11° C | 84% | 1014.1 hPa | 0 mm | - | 0 W/m² | - |
* Rain latest hour (hover to see other rain measurements)
** Current wind speed in m/s (hover to see current wind gust speed)